GW1464 Weather Reports


time (UTC)temp
C
wind
direction
speed
KPH
gust
KPH
rain 1hr
cm
rain 24hr
cm
rain mn
cm
humidity
%
barometer
mb
20260507144555 11 350 11.3 33.8 0.00 0.00 0.00 37 1012.7
20260507143116 11 9 8.0 20.9 0.00 0.00 0.00 35 1012.8
20260507141626 10 334 12.9 24.1 0.00 0.00 0.00 35 1012.8
20260507140112 10 339 11.3 24.1 0.00 0.00 0.00 37 1012.5
20260507134600 10 90 8.0 20.9 0.00 0.00 0.00 37 1012.5
20260507133103 9 323 6.4 19.3 0.00 0.00 0.00 38 1012.5
20260507131620 10 320 9.7 20.9 0.00 0.00 0.00 37 1012.5
20260507130107 9 350 3.2 12.9 0.00 0.00 0.00 40 1012.2
20260507124603 7 123 0.0 3.2 0.00 0.00 0.00 44 1012.0
20260507123105 7 99 0.0 4.8 0.00 0.00 0.00 45 1011.9
20260507121558 6 0 0.0 8.0 0.00 0.00 0.00 45 1011.8
20260507120057 6 0 0.0 4.8 0.00 0.00 0.00 46 1011.9
20260507114557 6 246 1.6 11.3 0.00 0.00 0.00 46 1011.8
20260507113131 6 315 0.0 14.5 0.00 0.00 0.00 45 1011.6
20260507111556 6 271 1.6 9.7 0.00 0.00 0.00 44 1011.4
20260507110057 5 273 1.6 8.0 0.00 0.00 0.00 44 1011.3
20260507104609 5 217 3.2 12.9 0.00 0.00 0.00 44 1011.3
20260507103059 4 0 0.0 6.4 0.00 0.00 0.00 42 1011.3
20260507101558 5 0 0.0 9.7 0.00 0.00 0.00 41 1011.2
20260507100100 5 219 3.2 9.7 0.00 0.00 0.00 39 1010.8
20260507094615 5 216 3.2 12.9 0.00 0.00 0.00 38 1010.9
20260507093057 5 0 3.2 9.7 0.00 0.00 0.00 38 1010.7
20260507091556 5 225 3.2 14.5 0.00 0.00 0.00 38 1010.8
20260507090056 5 211 3.2 12.9 0.00 0.00 0.00 38 1010.7
20260507084601 5 251 4.8 11.3 0.00 0.00 0.00 38 1010.6
20260507083056 3 0 1.6 11.3 0.00 0.00 0.00 43 1010.6
20260507081556 -1 0 1.6 8.0 0.00 0.00 0.00 56 1010.6
20260507074558 -5 0 0.0 3.2 0.00 0.00 0.00 65 1011.2
20260507073059 -5 0 0.0 0.0 0.00 0.00 0.00 65 1011.3
20260507071557 -5 0 0.0 1.6 0.00 0.00 0.00 65 1011.4
20260507070109 -5 0 0.0 4.8 0.00 0.00 0.00 64 1011.5
20260507064604 -5 0 0.0 6.4 0.00 0.00 0.00 63 1011.5
20260507063101 -5 61 0.0 4.8 0.00 0.00 0.00 64 1011.7
20260507061557 -5 0 0.0 6.4 0.00 0.00 0.00 65 1011.8
20260507060058 -5 0 0.0 1.6 0.00 0.00 0.00 64 1011.7
20260507054558 -5 0 0.0 0.0 0.00 0.00 0.00 63 1011.9
20260507053059 -5 0 0.0 3.2 0.00 0.00 0.00 62 1011.9
20260507051607 -4 0 0.0 3.2 0.00 0.00 0.00 61 1012.1
20260507050109 -4 293 0.0 1.6 0.00 0.00 0.00 61 1012.3
20260507044600 -4 293 0.0 6.4 0.00 0.00 0.00 60 1012.3
20260507043057 -3 293 0.0 4.8 0.00 0.00 0.00 58 1012.4
20260507041557 -3 0 0.0 0.0 0.00 0.00 0.00 56 1012.7
20260507040106 -2 0 0.0 0.0 0.00 0.00 0.00 54 1012.9
20260507034559 -2 0 0.0 0.0 0.00 0.00 0.00 51 1013.2
20260507033100 -1 0 0.0 0.0 0.00 0.00 0.00 51 1013.3
20260507031556 0 0 0.0 0.0 0.00 0.00 0.00 46 1013.3
20260507030059 1 0 0.0 0.0 0.00 0.00 0.00 44 1013.6
20260507024558 2 0 0.0 0.0 0.00 0.00 0.00 40 1013.4
20260507023057 3 0 0.0 0.0 0.00 0.00 0.00 39 1013.3
20260507021611 4 0 0.0 4.8 0.00 0.00 0.00 35 1013.3
20260507020057 5 0 0.0 3.2 0.00 0.00 0.00 34 1013.2
20260507014600 5 219 1.6 9.7 0.00 0.00 0.00 32 1013.2
20260507013103 6 0 0.0 9.7 0.00 0.00 0.00 31 1013.1
20260507011600 6 251 1.6 11.3 0.00 0.00 0.00 31 1013.1
20260507004557 6 245 4.8 12.9 0.00 0.00 0.00 29 1013.2
20260507003056 7 315 4.8 14.5 0.00 0.00 0.00 28 1013.4
20260507001609 7 230 4.8 14.5 0.00 0.00 0.00 29 1013.5
20260507000101 6 15 3.2 22.5 0.00 0.00 0.00 28 1013.8
20260506234624 7 238 6.4 19.3 0.00 0.00 0.00 28 1013.8
20260506233100 7 229 4.8 22.5 0.00 0.00 0.00 28 1014.0
20260506231557 7 265 6.4 22.5 0.00 0.00 0.00 28 1014.0
20260506230100 8 310 4.8 30.6 0.00 0.00 0.00 28 1014.1
20260506224556 7 322 6.4 17.7 0.00 0.00 0.00 31 1014.0
20260506223101 7 309 8.0 19.3 0.00 0.00 0.00 29 1014.2
20260506221557 7 212 4.8 19.3 0.00 0.00 0.00 30 1014.4
20260506220056 7 236 9.7 27.4 0.00 0.00 0.00 30 1014.6
20260506214557 7 325 9.7 25.7 0.00 0.00 0.00 30 1014.9
20260506213059 6 300 17.7 25.7 0.00 0.00 0.00 29 1015.1
20260506211558 7 250 4.8 20.9 0.00 0.00 0.00 31 1015.3
20260506210056 6 321 8.0 24.1 0.00 0.00 0.00 32 1015.4
20260506204600 6 275 9.7 27.4 0.00 0.00 0.00 32 1015.6
20260506203058 6 302 9.7 25.7 0.00 0.00 0.00 31 1015.5
20260506201558 6 249 11.3 25.7 0.00 0.00 0.00 31 1015.8
20260506200111 6 340 9.7 24.1 0.00 0.00 0.00 31 1015.9
20260506194614 5 234 12.9 27.4 0.00 0.00 0.00 34 1015.9
20260506193100 5 290 11.3 25.7 0.00 0.00 0.00 35 1016.1
20260506191556 5 192 8.0 22.5 0.00 0.00 0.00 37 1016.2
20260506190100 5 350 8.0 17.7 0.00 0.00 0.00 38 1016.4
20260506184605 4 350 11.3 20.9 0.00 0.00 0.00 38 1016.5
20260506183105 5 9 6.4 22.5 0.00 0.00 0.00 38 1016.5
20260506181600 4 234 9.7 20.9 0.00 0.00 0.00 40 1016.7
20260506180057 4 277 8.0 24.1 0.00 0.00 0.00 40 1016.9
20260506174602 3 173 3.2 22.5 0.00 0.00 0.00 41 1017.1
20260506173112 3 214 11.3 22.5 0.00 0.00 0.00 41 1017.2
20260506171600 3 325 8.0 22.5 0.00 0.00 0.00 43 1017.4
20260506170057 3 207 4.8 22.5 0.00 0.00 0.00 43 1017.4
20260506164558 2 250 8.0 17.7 0.00 0.00 0.00 45 1017.4
20260506163104 2 308 9.7 25.7 0.00 0.00 0.00 44 1017.4
20260506161605 2 352 8.0 19.3 0.00 0.00 0.00 45 1017.5
20260506160058 2 286 6.4 14.5 0.00 0.00 0.00 45 1017.6
20260506154558 1 243 3.2 11.3 0.00 0.00 0.00 47 1017.7
20260506153056 1 350 3.2 16.1 0.00 0.00 0.00 48 1017.7
20260506151608 0 23 6.4 16.1 0.00 0.00 0.00 50 1017.8
20260506150056 0 0 4.8 16.1 0.00 0.00 0.00 51 1017.8